Location: Beetenbrück
(52.8113°N, 9.5946°E)
Time: 22:17:01
(UTC+00:00)

ATLAS 3B R/B - Pass Details

Date: 14 April 2026
Orbit: 937 x 1257 km, 63.8° (Epoch: 12 May)

Event Time Altitude Azimuth Distance (km) Brightness Sun altitude
Rises 23:28:57 0° 307° (NW) 4,215 6.3 -27.5°
Reaches altitude 10° 23:31:53 10° 312° (NW) 3,247 5.7 -27.5°
Maximum altitude 23:39:36 53° 28° (NNE) 1,492 3.7 -27.4°
Drops below altitude 10° 23:47:00 10° 105° (ESE) 3,123 5.0 -27.3°
Sets 23:49:45 0° 110° (ESE) 4,044 5.6 -27.2°
